Regional Weather Roundup
Issued by NWS Wakefield, VA

Home | Current Version | Previous Version | Graphics & Text | Print | Product List | Glossary On
Versions: 1 2 3 4 5 6 7 8 9 10 11 12 13 14 15 16 17 18 19 20 21 22 23 24 25 26 27 28 29 30 31 32 33 34 35 36 37 38 39 40 41 42 43 44 45 46 47 48 49 50
000
ASUS41 KAKQ 312210
RWRAKQ

REGIONAL WEATHER ROUNDUP
NATIONAL WEATHER SERVICE WAKEFIELD VA
600 PM EDT SUN AUG 31 2014

Note: "fair" indicates few or no clouds below 12,000 feet with no
significant weather and/or obstructions to visibility. * = Denotes
station may not report precipitation (e.g., rain,snow,etc.),
thunder or fog.

VAZ042-051-052>054-056-312300-
NORTHERN VIRGINIA

CITY           SKY/WX    TMP DP  RH WIND       PRES   REMARKS
WASH NATIONAL  PTSUNNY   92  68  45 SW13G21   29.98S HX  96
DULLES         TSTM      73  72  94 VRB5G16   30.03R VSB 1
FORT BELVOIR   MOSUNNY   89  71  56 SE5       29.99S HX  95
QUANTICO       PTSUNNY   88  70  55 SW8       29.99S
FREDERICKSBRG* MOSUNNY   91  70  50 S13       29.98F HX  96
STAFFORD*      MOSUNNY   87  71  57 SW6       30.03F
WARRENTON      MOSUNNY   90  76  64 S6        30.00R HX 101
CULPEPER*      PTSUNNY  N/A N/A N/A S9        30.00R
MANASSAS*      SUNNY     88  72  58 S8        29.99R
LEESBURG*      TSTM      75  73  94 S7        30.02S
WINCHESTER     CLOUDY    79  68  69 SE6       30.03S
$$

VAZ048-049-060>072-079>083-312300-
CENTRAL AND SOUTH CENTRAL VIRGINIA...AND NORTH CENTRAL NORTH CAROLINA

CITY           SKY/WX    TMP DP  RH WIND       PRES   REMARKS
RICHMOND       MOSUNNY   90  69  50 SW13G21   30.02F
CHESTERFIELD*  CLEAR    N/A N/A N/A S10G16    30.03F
PETERSBURG*    MOSUNNY   87  68  52 S6        30.04F
HANOVER        MOSUNNY   89  70  53 S13G21    30.03S
TAPPAHANNOCK*  SUNNY     90  64  42 S10G17    30.02S
CHARLOTTSVILLE PTSUNNY   86  71  60 SW9       30.02R
ORANGE*        PTSUNNY   88  70  55 S12       30.01F
LOUISA*        MOSUNNY   88  72  58 S6        30.01S
FARMVILLE*     MOSUNNY   88  72  58 S8        30.01S
SOUTH HILL*    SUNNY     90  72  55 S9        30.11R HX  96
ROANOKE RAPIDS CLEAR     88  70  55 S8        30.05F
RALEIGH        MOSUNNY   89  69  51 S8        30.06F
$$

VAZ088>098-312300-
SOUTHEAST VIRGINIA

CITY           SKY/WX    TMP DP  RH WIND       PRES   REMARKS
NORFOLK        MOSUNNY   90  68  48 S13       30.05S
VIRGINIA BEACH MOSUNNY   87  70  56 S9        30.05S
NORFOLK NAVAL  MOSUNNY   89  71  55 S8        30.06F HX  95
WEST POINT*    SUNNY     92  67  44 S7        30.04F HX  95
NEWPORT NEWS   SUNNY     92  70  48 S13       30.04F HX  97
LANGLEY AFB    SUNNY     90  72  55 S9        30.04S HX  96
FORT EUSTIS    SUNNY     88  68  51 S8        30.03S
WILLIAMSBURG*  SUNNY     91  73  55 S9        30.04F HX 100
FRANKLIN*      SUNNY     90  70  51 S9        30.05S HX  95
WAKEFIELD      MOSUNNY   89  71  55 S7        30.04F HX  95
$$

VAZ020-022-025-037-045-312300-
WESTERN AND SOUTHWEST VIRGINIA

CITY           SKY/WX    TMP DP  RH WIND       PRES   REMARKS
STAUNTON*      PTSUNNY   86  66  51 SW9       30.06S
HOT SPRINGS VA CLOUDY    65  65  99 W13       30.23F
LYNCHBURG      PTSUNNY   82  73  74 CALM      30.07S
DANVILLE       MOSUNNY   88  70  55 SW7       30.06R
MARTINSVILLE   MOSUNNY   82  67  60 NE3       30.11R
ROANOKE        CLOUDY    84  66  54 W7        30.10R
BLACKSBURG     CLOUDY    81  70  69 CALM      30.17R
DUBLIN*        PTSUNNY   82  69  63 W7        30.16R
MARION*        CLOUDY   N/A N/A N/A SW6       30.20R
HILLSVILLE*    CLOUDY    77  69  74 CALM      30.19R
RICHLANDS*     CLOUDY    78  68  72 SW5       30.18S
WISE*          CLOUDY    73  64  73 SW9       30.19R
ABINGDON*      PTSUNNY   80  69  67 W6        30.16S
$$

MDZ021>025-VAZ099-100-312300-
SOUTHERN MARYLAND AND THE DELMARVA PENINSULA

CITY           SKY/WX    TMP DP  RH WIND       PRES   REMARKS
PATUXENT RIVER MOSUNNY   89  69  51 S9        30.00S
BAY BRIDGE APT   N/A     88  70  55 S13       29.99S
LEONARDTOWN    SUNNY     90  68  48 S8G16     30.02R
DOVER          SUNNY     89  74  61 S16       29.99R HX  97
GEORGETOWN     SUNNY     89  68  49 S16       30.02S
EASTON         MOSUNNY   90  72  55 S13G21    30.04S HX  96
CAMBRIDGE      SUNNY     86  68  54 S9        30.01S
SALISBURY      MOSUNNY   89  74  60 S12G18    30.03S HX  98
OCEAN CITY     SUNNY     81  74  79 S10G20    30.05S
WALLOPS ISLAND SUNNY     82  74  76 SW18G25   30.05F
ACCOMACK*      NOT AVBL
$$

NCZ012>017-030>032-312300-
EASTERN NORTH CAROLINA

CITY           SKY/WX    TMP DP  RH WIND       PRES   REMARKS
ELIZABETH CITY SUNNY     87  70  56 S9        30.07F
AHOSKIE*       SUNNY     86  71  60 S5        30.06F
EDENTON*       MOSUNNY   87  73  63 S8        30.07S
CURRITUCK*     MOSUNNY   89  68  50 SW6       30.08S
KILL DEVIL HLS SUNNY     85  73  67 S6        30.08S
MANTEO         MOSUNNY   83  74  75 S14       30.10S
CAPE HATTERAS  MOSUNNY   82  74  76 SW12      30.11S
GOLDSBORO      SUNNY     91  75  58 S6        30.04S HX 102
WASHINGTON     SUNNY     87  73  62 S7        30.08S
GREENVILLE     MOSUNNY   88  72  58 S8        30.08S
NEW BERN       MOSUNNY   88  69  53 S9        30.10S
WILMINGTON     SUNNY     85  74  69 SE10      30.09F
$$

VAZ048-312300-
ELSEWHERE

CITY           SKY/WX    TMP DP  RH WIND       PRES   REMARKS
HARRISBURG PA  CLOUDY    85  69  58 W8        29.99R
BALTIMORE      PTSUNNY   85  68  56 W12G20    29.99R
ANNAPOLIS      MOSUNNY   83  73  72 S15       29.98S
ANDREWS AFB    MOSUNNY   90  71  53 SW10      29.99S HX  95
WILMINGTON DE  MOSUNNY   81  74  79 CALM      29.98F
PHILADELPHIA   LGT RAIN  84  75  74 SW15      29.99R
WILDWOOD NJ*   MOSUNNY   82  70  65 S14G21    30.03R
ATLANTIC CITY  MOSUNNY   83  71  67 S14G21    30.00F
HENDERSON NC   MOSUNNY   87  67  50 S5        30.07R
GREENSBORO     PTSUNNY   90  68  48 S6        30.07S
ROCKY MOUNT    MOSUNNY   90  71  53 S6        30.06F HX  96
FAYETTEVILLE   CLOUDY    92  70  48 SE10      30.05S HX  97
CHARLOTTE      PTSUNNY   90  69  50 VRB3      30.08S
$$

VAZ100-312300-
MARINE

STATION/POSITION TIME  TEMP    WIND        PRES    WAVE   SWELL
                       AIR SEA DIR/SP/G            HT/PER HT/PER
                 (UTC) (F)     (DEG/KT/KT) (MB)    (FT/S) (FT/S)
44066 TX TWR #4  2200   75 74  210/ 16/ 17 1017.5R   4/10   2/10
CAPE MAY NJ      2200   79 80  170/ 11/ 16 1015.9R
LEWES DE         2200   89 76  220/  6/ 10 1016.1S
15NM E FENWICK I 2200   77 74              1017.1F   4/ 4
OCEAN-CITY-INLET 2200   78 77  210/ 16/ 20 1017.1R
WACHAPREAGUE VA  2200   81 85  190/ 15/ 19 1017.8F
THOMAS POINT MD  2200   82 78  180/ 17/ 19 1016.2S
GOOSES REEF MD   2200   81     180/ 16/ 17 1016.2R
COVE POINT MD    2200   80     190/ 16/ 18 1015.9S
SOLOMONS ISLAND  2200      81                N/A
BISHOPS HEAD MD  2200   83 82  180/ 17/ 20 1016.0S
PINEY POINT MD   2200          210/ 14/ 16   N/A
POTOMAC MD       2200   83     180/ 16/ 17 1015.8S
CAMBRIDGE MD     2200   87 78  180/  8/ 14 1016.1R
LEWISETTA VA     2200   88 80  210/ 10/ 11 1015.6F
RAPPAHANNOCK LGT 2200          150/ 14/ 15 1017.7F
STINGRAY PT      2200   81     170/ 16/ 17   N/A
YORK RVR RNG VA  2200   85     220/ 10/ 12 1016.6F
YORKTOWN VA      2200   88 80  230/  8/ 12 1016.8F
JAMESTOWN VA     2200   86     220/ 10/ 14   N/A
DOMINION TERM VA 2200   85     210/  9/ 11 1017.6F
KIPTOPEKE VA     2200      83  180/ 16/ 19   N/A
CHES BAY BRIDGE  2200   87 80  210/ 13/ 16 1017.1S
CAPE HENRY VA    2200   83     150/ 10/ 15 1016.6F
CHESAPEAKE LGHT  2100   79     170/ 20/ 22 1018.4F
WILLOUBY STN VA  2200   87     230/ 11/ 14 1016.4F
S CRANEY ISL VA  2200          190/  7/ 11 1017.4S
CAPE HENRY BUOY  2200      80                N/A     3/10   2/11
1ST LANDING BUOY 2200   83     160/ 10/ 14 1017.3F
CAPE CHARLES BUO 2200      78                N/A     3/11   2/11
OFFSHORE WE BUOY 2200      77                N/A     3/10   3/10
64NM E OF VA BCH 2200   79 79  180/ 12/ 14 1018.9F   3/ 9   2/ 9
DUCK PIER NC     2200   83 78  150/ 15/ 17 1017.7F
44056 DUCK FRF   2200                        N/A     2/ 9
OREGON INLET NC  2200   82 81  180/ 11/ 14 1019.4F
HATTERAS NC      2200   83 84  190/  6/ 11 1020.2S
DIAMOND SHLS NC  2200   81     180/ 16/ 17 1019.5F   3/ 8   3/ 8
CAPE LOOKOUT NC  2200   83     200/  9/ 11 1019.5S
$$


USA.gov is the U.S. government's official web portal to all federal, state and local government web resources and services.